Location: Eaton Estates
(41.3089°N, 82.0057°W)
Time: 07:35:32
(UTC+00:00)

Cosmos 2237 Rocket - Pass Details

Date: 17 June 2021
Orbit: 835 x 850 km, 71.0° (Epoch: 03 August)

Event Time Altitude Azimuth Distance (km) Brightness Sun altitude
Exits shadow 04:28:46 53° 127° (SE) 1,018 2.3 -23.8°
Maximum altitude 04:29:14 55° 108° (ESE) 1,001 2.3 -23.8°
Drops below altitude 10° 04:34:41 10° 32° (NNE) 2,452 5.2 -24.1°
Sets 04:37:10 0° 29° (NNE) 3,390 6.1 -24.2°
